Location: Bagnolet
(48.8667°N, 2.4167°E)
Time: 19:15:54
(UTC+00:00)

Daily predictions for brighter satellites

Satellite Brightness Start Highest point End
(mag) Time Altitude Azimuth Time Altitude Azimuth Time Altitude Azimuth
RESURS DK-1 2.4 16:24:46 10° SSW 16:28:53 89° WNW 16:33:03 10° NNE
Envisat 4.0 16:26:39 10° ESE 16:30:42 25° ENE 16:34:46 10° N
USA 267 3.3 16:26:40 10° ESE 16:33:12 78° NNE 16:39:46 10° NW
H-2A R/B 4.3 16:31:09 10° NNW 16:34:07 20° WNW 16:37:06 10° WSW
CZ-4B R/B 3.4 16:29:28 10° SSE 16:34:48 79° WSW 16:40:18 10° NNW
Cosmos 1992 Rocket 4.0 16:33:09 10° NNW 16:38:25 76° ENE 16:43:38 10° SSE
YAOGAN 1 4.3 16:37:27 10° E 16:39:09 12° NE 16:40:51 10° NNE
NOSS 3-4 (A) 4.0 16:33:31 10° WSW 16:39:27 53° NW 16:45:51 10° NE
NOSS 3-4 (C) 4.0 16:33:37 10° WSW 16:39:33 53° NW 16:45:57 10° NE
Feng Yun 1-1 Rocket 4.3 16:35:08 10° SE 16:40:20 52° ENE 16:45:35 10° N
Cosmos 1536 3.1 16:38:20 10° N 16:42:14 45° ENE 16:46:04 10° SSE
Cosmos 2278 Rocket 2.4 16:36:47 10° NNW 16:42:28 80° WSW 16:48:07 10° SSE
Nadezhda 4 Rocket 4.2 16:37:13 10° SSE 16:43:18 53° E 16:49:24 10° NNE
Cosmos 2360 Rocket 3.7 16:40:06 10° WSW 16:45:03 30° NW 16:50:02 10° NNE
Cosmos 1733 Rocket 3.1 16:41:26 10° N 16:45:51 87° E 16:50:16 10° S
Lacrosse 5 rocket 1.5 16:47:37 10° WSW 16:51:56 69° NNW 16:55:35 13° NE
Cosmos 2369 Rocket 3.5 16:49:15 10° N 16:53:22 20° NE 16:57:15 11° E
AQUARIUS 4.2 16:49:56 10° SSE 16:54:20 56° ENE 16:58:44 10° N
SMAP 3.0 16:50:25 10° SSE 16:55:01 63° ENE 16:59:38 10° N
YAOGAN 6 3.9 16:54:09 10° ESE 16:56:46 19° ENE 16:59:25 10° NNE
SL-4 R/B 2.0 16:54:25 10° W 16:58:06 60° N 17:01:17 15° ENE
Cosmos 921 Rocket 3.5 16:55:01 10° N 16:58:59 36° ENE 17:02:59 10° SE
Cosmos 1743 3.9 16:56:01 10° NNE 16:59:03 21° ENE 17:02:05 10° ESE
SL-16 R/B 3.1 16:55:37 10° SSE 17:00:24 29° ESE 17:04:31 13° NE
IRS-1C Rocket 4.1 16:55:35 10° SSE 17:00:51 80° ENE 17:06:09 10° NNW
FALCON 9 DEB 3.8 17:00:56 10° SW 17:04:16 43° SE 17:06:35 17° E
Aureole 1 Rocket 3.1 17:01:36 10° S 17:04:18 31° ESE 17:06:13 17° NE
Cosmos 2026 Rocket 4.5 16:59:39 10° SSE 17:05:03 35° E 17:10:29 10° NNE
Cosmos 1867 4.0 17:00:03 10° NNW 17:05:15 43° NE 17:10:26 10° ESE
ALOS 4.2 17:01:55 10° SSW 17:06:06 32° W 17:10:19 10° NNW
NOSS 0 Rocket 4.0 17:01:37 10° SSW 17:07:50 89° WNW 17:14:09 10° NNE
CORIOLIS 4.1 17:03:35 10° SSE 17:09:01 73° ENE 17:14:29 10° NNW
Cosmos 2237 Rocket 2.2 17:03:29 10° SSW 17:09:10 80° ESE 17:14:54 10° NNE
Cosmos 1812 3.0 17:08:44 10° SSW 17:12:35 69° W 17:16:28 10° N
Cosmos 2333 Rocket 3.2 17:07:20 10° SW 17:12:49 45° NW 17:18:22 10° NNE
ATLAS 5 CENTAUR R/B 1.2 17:11:04 10° SSW 17:13:13 38° SE 17:13:52 28° E
CZ-4 R/B 2.3 17:10:07 10° ESE 17:13:18 25° ENE 17:16:28 10° N
Cosmos 2322 Rocket 4.4 17:11:00 10° WNW 17:14:00 14° NNW 17:17:01 10° N
SeaSat 1 4.3 17:16:07 13° NE 17:16:22 13° NNE 17:18:25 10° N
ATLAS 2AS CENTAUR R/B 4.0 17:10:19 10° W 17:17:45 39° NNW 17:24:34 12° NE
Cosmos 2219 Rocket 3.3 17:13:42 10° WSW 17:18:59 41° NW 17:24:20 10° NNE
Cosmos 1782 Rocket 3.8 17:14:51 10° N 17:19:04 45° ENE 17:23:13 10° SSE
Cosmos 292 Rocket 3.9 17:14:44 10° NNW 17:19:38 83° WSW 17:24:29 10° SSE
SKYMED 2 4.5 17:17:34 18° NE 17:19:49 28° E 17:23:33 10° SSE
Cosmos 1943 Rocket 2.8 17:19:00 10° NNW 17:24:05 33° NE 17:27:53 16° ESE
SL-16 R/B 4.5 17:21:54 10° NW 17:24:07 12° NNW 17:26:19 10° N
STARLINK-67 3.4 17:24:38 10° WNW 17:27:12 34° N 17:27:38 32° NNE
ISS -0.4 17:26:06 10° WSW 17:27:20 12° SW 17:28:34 10° SSW
Okean 2 Rocket 3.9 17:23:50 10° N 17:27:42 28° ENE 17:31:34 10° SE
Cosmos 1862 Rocket 4.3 17:24:07 10° SSW 17:28:23 54° WNW 17:32:44 10° N
Sich 1 Rocket 3.8 17:25:33 10° N 17:29:47 44° ENE 17:33:59 10° SSE
Cosmos 1703 Rocket 3.6 17:27:22 10° S 17:31:48 63° E 17:36:15 10° NNE
STARLINK-52 3.4 17:29:12 10° SW 17:32:38 56° SSE 17:33:53 34° E
Cosmos 1190 Rocket 4.4 17:28:35 10° S 17:33:24 40° ESE 17:36:02 23° NE
Cosmos 1975 3.4 17:31:03 10° N 17:34:43 33° ENE 17:38:21 10° SE
Cosmos 1627 Rocket 4.4 17:32:09 10° S 17:38:11 65° E 17:44:16 10° NNE
CSL-04 Rocket 3.9 17:33:21 10° SE 17:38:18 43° ENE 17:43:19 10° N
STARLINK-46 3.5 17:36:51 10° WNW 17:39:18 32° N 17:39:21 32° N
STARLINK-60 3.0 17:37:15 10° WSW 17:40:38 86° NNW 17:41:33 46° ENE
STARLINK-29 3.2 17:37:16 10° SW 17:40:46 70° SSE 17:41:45 43° E
Cosmos 1980 4.2 17:35:17 10° SW 17:40:51 60° WNW 17:46:04 12° NNE
USA 215 3.3 17:36:17 21° NE 17:40:58 76° NNW 17:47:30 10° WSW
Lacrosse 5 3.9 17:40:11 10° SE 17:41:14 11° SE 17:41:14 11° SE
Cosmos 2195 Rocket 4.4 17:36:04 10° S 17:42:17 76° E 17:48:37 10° NNE
Cosmos 1441 Rocket 3.2 17:39:58 10° NNW 17:43:49 79° WSW 17:47:34 10° S
H-2A R/B 4.1 17:41:13 10° S 17:44:43 40° W 17:48:13 10° NNW
Cosmos 2297 3.9 17:43:06 10° NNW 17:48:50 76° WSW 17:54:28 10° SSE
Cosmos 1655 Rocket 4.4 17:43:07 10° SSE 17:48:51 38° E 17:53:06 17° NNE
Cosmos 614 Rocket 3.9 17:44:01 10° S 17:49:02 63° ESE 17:51:50 26° NE
Cosmos 2242 Rocket 4.4 17:46:01 10° SSW 17:50:29 53° WNW 17:55:00 10° N
COBE Rocket 4.4 17:46:58 10° N 17:51:33 58° WNW 17:56:09 10° SSW
Cosmos 1092 Rocket 4.1 17:46:50 10° SSW 17:53:09 78° W 17:59:26 10° N
Cosmos 1174 3.9 17:51:07 10° SSW 17:56:02 76° SE 17:57:13 45° NE
CSL-04 Debris 4.1 17:51:59 10° SSE 17:57:21 62° ENE 18:02:43 10° N
Cosmos 1666 4.5 17:59:44 10° NNW 18:03:06 32° W 18:06:26 10° SSW
Okean-O 3.5 17:59:43 10° S 18:04:01 50° W 18:08:21 10° NNW
COSMO-SKYMED 1 2.4 18:06:07 33° NNE 18:08:02 82° ESE 18:12:22 10° SSW
BREEZE-M R/B 2.4 18:03:34 10° WNW 18:08:27 82° SSW 18:08:34 79° SSE
Envisat 3.7 18:04:26 10° S 18:09:25 54° W 18:14:25 10° NNW
Okean 1-7 3.4 18:06:04 10° SSW 18:10:23 63° WNW 18:13:53 16° N
Cosmos 1140 Rocket 3.4 18:05:49 10° S 18:10:53 65° ESE 18:12:14 46° NE
Meteor 2-13 Rocket 4.5 18:05:27 10° SSE 18:11:17 53° E 18:14:12 29° NNE
YAOGAN 1 2.4 18:10:14 10° SSE 18:14:33 85° ENE 18:18:55 10° NNW
USA 267 4.4 18:10:27 10° SSE 18:16:33 41° SW 18:22:41 10° WNW
Meteor 2-9 Rocket 4.2 18:10:46 10° N 18:16:41 77° ENE 18:22:28 10° SSE
NOSS 3-1 (C) 4.0 18:10:23 10° NW 18:17:32 59° NE 18:20:52 36° ESE
Meteor 1-18 Rocket 4.1 18:13:01 10° S 18:18:44 90° ESE 18:23:06 18° NNE
Cosmos 407 Rocket 3.5 18:14:31 10° SSW 18:19:43 78° WNW 18:22:13 32° NNE
Cosmos 1023 Rocket 4.3 18:15:34 10° SSW 18:20:39 80° ESE 18:21:54 52° NE
NOAA 11 4.0 18:16:44 10° SSE 18:22:11 75° ENE 18:27:41 10° NNW
S3M 3.8 18:18:41 10° N 18:24:56 79° E 18:31:05 10° SSE
BREEZE-M DEB (TANK) 4.1 18:24:18 10° W 18:26:54 18° SW 18:27:35 17° SSW
USA 229 DEB 3.8 18:20:15 10° NW 18:27:24 65° NE 18:29:44 45° ESE
USA 229 3.8 18:20:21 10° NW 18:27:29 65° NE 18:29:47 45° ESE
Uosat 12 SS-18 rocket 4.0 18:24:58 10° NW 18:29:52 90° NW 18:29:53 90° SSE
YAOGAN 6 4.2 18:26:46 10° SSW 18:30:03 35° W 18:33:24 10° NNW
CZ-4C R/B 3.7 18:26:33 10° S 18:28:04 18° SSE 18:28:04 18° SSE
Lacrosse 5 rocket 2.8 18:28:00 10° WNW 18:31:14 27° NNW 18:31:14 27° NNW
NOSS 3-1 (A) 4.1 18:25:41 10° NW 18:32:44 54° NE 18:34:14 48° ENE
Cosmos 2266 Rocket 4.0 18:27:55 10° SSE 18:33:59 56° E 18:33:59 56° E
Cosmos 1743 4.4 18:31:25 10° NNW 18:34:56 34° W 18:38:27 10° SSW
Cosmos 1553 Rocket 4.3 18:30:24 10° NNW 18:36:45 69° W 18:43:06 10° S
SL-4 R/B 2.9 18:34:08 10° WNW 18:36:53 43° NW 18:36:53 43° NW
Cosmos 2369 Rocket 2.0 18:32:37 10° NNW 18:38:17 83° ENE 18:39:07 66° SE
SL-16 R/B 2.8 18:38:39 10° SW 18:44:13 54° NW 18:46:25 34° N
CZ-4 R/B 3.0 18:44:44 10° SSW 18:48:13 31° W 18:51:42 10° NNW
Cosmos 1603 4.4 18:45:30 10° S 18:49:20 42° S 18:49:20 42° S
Ariane Rocket 4.4 18:55:13 27° NNW 18:55:13 27° NNW 18:57:31 10° NNW
SeaSat 1 4.3 18:55:55 20° N 18:55:55 20° N 18:57:34 10° NNW
Cosmos 2237 Rocket 4.1 18:49:21 10° W 18:53:54 24° NW 18:56:55 16° N
Meteor 2-4 Rocket 3.9 19:01:32 10° SSW 19:06:55 71° WSW 19:06:55 71° WSW
Cosmos 1943 Rocket 2.8 19:02:37 10° NW 19:08:06 52° WSW 19:09:31 41° SSW
ATLAS 2AS CENTAUR R/B 4.2 19:04:23 10° WNW 19:11:00 27° N 19:12:00 26° N
Cosmos 2344 4.3 19:08:46 10° NW 19:18:16 87° NE 19:22:30 49° SE
USA 215 3.8 19:23:38 46° N 19:23:38 46° N 19:29:44 10° WNW
Lacrosse 5 4.0 19:19:02 10° SW 19:20:27 19° SSW 19:20:27 19° SSW
